Temperature
20 19 20 20 20 20 20 20 20 20 20 20 20 20 20 20 19 19 19 19 19 19 19 18 18 18 18 18 18 18 18 18 18 18 18 18 18 18 17 17 17 17 18
20 19 20 20 20 20 20 20 20 20 20 20 20 20 20 20 19 19 19 19 19 19 19 18 18 18 18 18 18 18 18 18 18 18 18 18 18 17 17 17 17 17 17
20 20 20 20 20 20 20 20 20 20 20 20 20 20 19 19 19 19 19 19 19 19 19 19 19 18 18 18 18 18 18 18 18 18 17 17 17 17 17 17 17 18 17
20 19 19 20 20 19 19 20 20 20 20 20 20 19 19 19 19 19 19 19 19 19 19 19 19 19 18 18 18 18 18 18 18 17 17 17 17 17 17 17 18 18 17
20 19 19 20 19 19 19 19 19 19 19 19 19 19 19 19 19 19 19 19 19 18 18 18 18 18 18 18 18 18 18 18 18 17 17 17 17 18 17 17 17 17 17
19 19 19 20 19 19 19 19 19 19 19 19 19 19 19 19 19 19 19 19 18 18 18 18 18 18 18 18 18 18 18 18 17 18 17 17 17 18 17 17 17 17 17
20 19 19 19 19 19 19 19 19 19 19 19 19 19 19 19 19 18 18 18 18 18 18 18 18 18 18 18 18 18 18 18 17 17 17 17 17 17 17 17 17 17 17
20 20 18 19 19 19 19 19 19 19 19 19 19 19 19 18 18 18 18 18 18 18 18 18 18 18 18 18 18 18 18 18 17 17 17 17 17 18 17 17 17 17 17
20 20 18 18 19 19 19 19 19 19 19 19 19 19 18 18 18 18 18 18 18 18 18 18 18 18 18 18 18 18 18 18 17 17 17 17 18 18 17 17 17 17 17
19 19 19 19 18 18 18 19 19 19 19 19 19 19 19 18 18 18 18 18 18 18 18 18 18 18 18 18 18 18 18 18 17 18 18 17 18 18 18 17 17 17 17
18 18 19 19 18 18 18 18 18 19 19 19 18 19 18 18 18 18 18 18 18 18 18 18 18 18 18 18 18 18 18 17 18 18 18 18 18 18 18 17 17 17 17
18 18 18 18 18 18 18 18 18 18 18 18 18 18 18 18 18 17 17 18 18 18 18 18 18 18 17 17 17 18 17 17 18 18 18 18 18 18 18 18 17 17 17
19 18 18 18 18 18 18 18 18 18 18 18 18 18 18 17 17 17 17 17 17 17 17 17 17 17 17 17 17 17 17 17 17 18 18 18 18 18 18 18 17 17 17
19 18 18 18 18 18 18 18 18 18 18 18 18 18 17 17 17 17 17 17 17 17 17 17 17 17 17 17 17 17 17 17 17 17 17 17 18 18 18 18 18 17 17
18 18 18 18 18 18 18 18 17 17 17 17 17 17 17 17 17 16 16 17 17 16 16 16 16 16 17 17 17 17 17 17 17 17 17 17 18 18 18 18 18 18 17
18 18 18 18 18 18 18 18 17 17 17 17 17 17 16 16 16 16 16 16 16 16 16 16 16 16 16 16 16 16 16 16 16 17 17 17 17 18 18 18 18 18 17
18 18 18 18 18 18 17 17 17 17 17 17 16 16 16 15 15 15 15 15 15 15 15 15 15 15 16 16 16 16 16 16 16 16 16 17 17 17 17 18 18 18 18
17 17 17 17 18 18 17 17 17 16 16 16 15 15 15 15 15 14 14 15 14 14 14 14 15 15 15 15 15 15 16 16 16 16 16 16 16 17 17 17 18 18 18
17 17 17 17 17 17 17 17 16 16 16 15 15 14 14 14 14 14 14 14 14 14 14 14 14 14 14 14 15 15 15 15 15 16 16 16 16 16 16 17 17 17 17
17 17 17 17 17 17 17 16 16 15 15 15 14 14 14 13 13 13 13 13 13 13 13 13 13 13 14 14 14 15 15 15 16 16 16 16 16 16 16 16 16 16 17
17 17 17 17 17 17 16 16 15 15 15 14 14 13 13 13 12 12 12 12 12 13 13 13 13 13 13 14 14 15 16 16 16 16 16 16 16 16 16 16 16 16 16
17 17 17 17 17 16 16 16 15 15 14 14 13 13 12 12 12 12 12 12 12 12 12 12 12 13 13 13 14 14 16 17 16 16 15 15 15 15 15 15 15 16 16
17 17 17 17 16 16 16 15 15 14 14 14 13 13 12 12 12 11 11 11 11 12 12 12 12 12 13 13 13 14 15 16 16 16 15 15 15 15 15 15 15 15 15
18 18 17 17 16 16 16 15 15 14 14 14 13 13 12 11 11 11 11 11 11 11 11 11 12 12 12 13 13 13 13 13 14 15 15 15 14 14 14 15 15 15 15
18 18 17 17 16 16 15 15 14 14 14 13 13 12 11 12 11 11 10 10 10 11 11 11 11 11 11 12 12 13 13 13 13 13 15 15 15 14 14 14 14 15 15
18 18 17 17 16 16 15 14 14 13 13 12 12 12 12 12 11 11 10 10 10 10 10 10 10 11 11 11 11 12 12 13 13 13 14 14 14 14 14 14 14 14 15
Wind_Speed
13 15 17 13 11 10 11 12 13 14 14 14 14 13 13 12 11 10 9 8 7 6 5 5 5 5 5 6 6 7 8 8 9 9 9 10 11 12 13 14 14 16 17
15 17 17 13 12 11 11 12 13 13 13 13 13 13 12 11 10 9 8 7 6 5 4 4 4 5 5 5 6 6 7 7 8 9 10 11 11 11 11 10 8 16 17
16 17 17 13 12 12 11 12 12 13 12 12 12 12 11 10 9 8 7 6 5 5 4 3 3 4 4 5 5 6 6 6 7 7 8 10 12 11 10 10 15 17 16
16 17 16 15 13 12 11 11 12 12 12 11 11 10 9 9 8 7 6 6 5 5 4 3 3 3 4 5 5 5 5 5 6 7 7 8 11 12 11 13 15 15 15
15 15 16 15 13 12 11 11 11 11 11 10 10 9 8 7 7 6 6 6 5 5 5 4 4 4 4 4 5 4 4 5 5 8 4 6 9 12 11 13 14 15 15
14 15 16 14 13 12 11 11 11 10 10 10 9 8 7 7 6 6 6 6 6 5 5 5 5 5 5 5 5 5 5 5 8 5 5 5 9 12 11 12 13 14 14
14 14 16 13 12 11 10 10 10 9 9 9 8 7 7 7 6 6 7 7 7 6 6 6 6 6 6 6 6 6 6 7 8 3 5 5 8 12 11 12 13 13 14
13 12 15 12 11 10 9 9 8 8 8 7 7 7 6 6 7 7 7 7 8 8 8 7 7 7 7 7 7 7 7 9 9 5 5 5 11 10 10 11 12 13 13
11 11 11 13 12 10 8 7 7 6 6 5 5 5 5 5 6 7 7 8 8 9 9 8 9 8 9 9 9 9 9 10 11 6 7 5 12 10 10 11 12 13 13
8 8 8 8 8 9 10 8 5 5 4 4 4 4 5 7 9 9 10 10 9 9 9 9 10 10 10 11 11 11 10 10 13 10 8 8 13 12 12 12 13 13 14
8 6 6 7 6 5 5 7 6 6 5 4 5 4 5 7 7 7 8 5 7 9 9 9 10 10 11 13 13 12 12 12 13 10 8 10 13 13 13 14 14 14 15
9 7 5 4 5 4 3 4 3 3 3 2 2 2 4 5 6 7 3 4 7 8 9 10 10 11 13 12 14 15 13 15 13 11 9 12 13 15 15 16 16 17 16
9 6 5 4 3 3 3 2 2 1 1 1 2 3 3 4 5 6 5 5 6 8 8 8 10 11 11 10 9 11 13 13 12 11 11 15 15 16 17 18 18 19 19
7 6 5 4 4 2 2 3 2 2 2 2 2 3 3 3 4 4 5 5 5 5 5 6 7 9 10 10 11 12 13 13 12 12 11 15 17 18 18 19 19 21 21
7 6 6 5 5 4 4 2 3 2 2 2 2 3 4 4 3 4 4 4 6 6 6 6 7 7 8 10 11 12 13 14 15 15 12 16 19 20 20 20 20 21 23
7 7 6 6 5 5 4 3 2 2 2 3 3 4 5 4 3 4 3 3 4 5 5 6 6 6 7 7 9 11 12 14 15 15 16 15 19 21 21 21 21 21 23
7 7 7 7 6 5 5 4 3 2 3 3 4 4 5 5 5 5 4 4 4 5 4 6 6 6 7 8 9 10 10 12 14 15 16 16 16 21 23 23 23 23 23
7 7 6 6 7 6 4 3 3 3 4 3 4 4 5 5 5 6 5 5 5 6 5 5 6 6 6 7 7 8 9 9 12 14 15 16 16 16 20 26 25 24 25
7 6 6 5 5 5 4 3 3 2 3 3 4 5 5 5 6 7 6 5 6 6 6 6 5 6 7 7 8 8 8 9 10 12 14 16 17 17 17 20 26 26 26
6 6 5 5 4 4 3 2 1 0 1 3 3 4 5 6 6 7 6 5 7 6 6 5 6 6 7 7 9 9 9 10 10 11 12 13 14 17 19 18 19 23 28
7 7 6 6 5 4 3 3 2 2 3 3 4 4 5 6 6 6 7 5 6 7 7 8 7 8 7 6 8 9 9 11 10 9 9 10 11 13 15 17 17 17 19
8 8 8 8 7 6 4 3 2 4 4 4 4 3 5 5 6 7 6 8 7 7 7 7 7 8 8 6 7 8 8 7 6 7 7 8 8 8 10 14 16 17 18
10 10 9 8 7 7 5 5 4 4 5 5 4 4 4 6 6 7 7 8 7 9 7 7 8 9 8 7 6 6 7 6 7 5 5 5 5 6 8 9 12 15 18
11 10 10 9 8 7 7 7 7 7 7 7 6 5 6 6 6 7 7 7 7 8 7 8 7 7 8 9 6 6 7 8 7 7 7 5 5 6 7 8 9 11 15
9 9 8 8 8 7 7 6 7 8 7 6 6 6 7 6 6 6 6 7 7 7 7 8 8 8 8 9 9 8 8 7 9 10 10 8 7 6 6 7 8 8 12
8 7 7 7 6 6 6 5 6 7 7 8 8 8 7 6 5 5 6 6 7 7 7 8 8 9 8 9 9 9 9 9 9 9 10 10 10 8 7 7 7 6 8
Wind_Direction
149 140 136 143 140 135 130 130 137 144 148 150 151 151 152 153 151 150 149 147 143 136 123 110 104 103 101 100 101 102 110 116 118 118 117 116 119 123 128 135 141 123 123
144 139 139 144 142 136 131 128 130 134 138 141 144 146 148 149 151 152 153 154 154 149 133 118 111 108 108 106 109 111 116 123 124 125 129 126 123 126 132 136 122 121 129
143 140 146 144 143 139 134 130 129 129 130 131 133 137 141 144 149 154 158 162 166 163 149 136 125 121 121 120 120 123 128 130 130 141 168 143 127 129 129 120 116 129 132
144 145 149 141 145 142 139 135 131 129 128 128 130 133 137 143 150 158 166 175 182 177 169 162 149 141 137 137 137 139 143 142 144 189 184 132 135 130 135 131 132 137 137
143 143 137 145 147 146 142 139 137 134 133 133 135 139 145 152 160 170 181 190 195 194 190 186 176 167 162 155 155 158 157 151 168 226 129 127 126 135 145 144 144 143 142
146 150 139 149 148 148 147 146 144 143 143 143 145 149 156 165 176 187 196 205 210 210 208 203 195 188 184 179 176 178 177 175 212 184 137 150 134 145 155 154 153 150 149
154 148 141 148 149 150 151 151 151 151 152 153 156 163 173 184 195 205 212 218 223 224 220 218 213 203 200 199 197 197 197 207 239 170 163 162 130 147 164 164 162 157 155
152 148 136 142 149 152 154 155 156 158 162 164 169 179 192 204 215 223 228 232 236 236 234 229 223 214 209 208 211 212 214 232 228 205 197 170 132 161 176 173 172 167 164
153 147 150 158 157 158 158 162 163 165 168 172 182 196 213 224 231 236 239 241 244 245 243 239 232 224 216 214 217 221 224 240 255 221 211 184 148 178 190 184 183 179 175
148 147 151 161 156 168 167 160 165 169 173 184 203 222 243 244 239 238 241 233 245 251 250 247 242 235 225 220 221 223 225 233 245 228 217 173 157 187 200 197 194 192 186
150 155 164 158 158 174 170 149 175 177 187 213 216 220 251 264 263 243 251 251 257 261 259 254 250 246 237 227 223 225 225 233 235 238 223 154 168 193 205 206 203 201 197
161 163 162 163 164 174 165 150 175 195 171 234 293 288 279 287 291 285 283 263 263 266 261 250 250 247 238 233 218 214 228 233 242 234 218 162 183 201 210 211 209 207 205
157 158 162 165 170 172 158 138 102 66 52 351 351 327 311 297 281 278 279 257 256 257 262 253 246 248 244 240 235 223 228 234 235 238 223 178 195 208 215 216 214 211 210
151 150 146 145 143 131 107 92 82 72 51 27 37 345 327 310 302 304 294 296 283 274 272 274 266 258 258 254 245 241 236 234 236 235 229 190 201 211 218 220 219 216 213
150 143 135 139 135 132 120 97 83 68 42 59 12 357 335 324 318 310 296 297 294 293 279 275 273 272 265 255 252 246 243 240 241 241 232 204 208 214 219 222 223 222 218
144 136 133 138 137 133 123 108 96 77 59 28 26 10 346 334 333 317 295 304 299 293 302 296 289 281 272 267 259 255 252 246 241 242 244 225 212 216 220 223 224 224 223
142 136 136 135 130 125 118 110 96 70 43 29 27 15 356 343 341 317 308 289 299 297 294 287 290 281 271 268 263 261 256 253 248 242 242 241 229 217 218 223 224 224 224
139 134 136 131 125 121 108 100 88 54 41 25 10 4 1 348 332 311 303 298 309 291 285 285 276 286 283 280 275 269 261 252 250 247 243 240 241 237 221 219 222 224 224
144 144 142 130 137 129 120 115 90 72 32 6 357 357 357 335 327 307 303 312 293 286 285 288 296 295 290 287 280 267 264 258 254 250 246 243 240 239 238 221 217 222 225
156 159 160 160 157 162 162 167 181 38 346 340 341 358 339 329 330 318 298 305 298 290 288 290 295 283 287 287 289 285 272 262 254 251 249 246 242 239 238 236 225 222 222
179 182 187 192 182 198 213 244 266 293 309 318 324 350 329 330 329 314 307 309 293 294 299 293 290 283 278 292 290 286 275 256 248 248 247 251 246 241 241 236 233 232 222
201 205 207 210 210 220 222 252 276 302 300 312 319 324 319 324 318 308 315 300 298 299 283 283 281 289 289 287 296 300 292 270 233 251 248 244 251 250 246 241 235 232 234
215 216 221 221 222 230 234 244 252 254 267 282 305 307 322 316 310 311 306 302 305 292 291 295 285 275 285 286 282 295 300 304 316 264 262 262 266 265 261 259 247 239 232
222 222 223 226 228 229 233 252 272 288 299 311 307 313 312 299 301 300 300 299 297 295 297 283 280 283 275 278 271 265 278 299 293 293 278 269 276 277 276 267 260 247 238
225 224 223 223 228 231 240 250 261 278 294 298 304 300 297 297 293 294 297 296 292 289 299 300 295 281 277 276 282 279 274 267 261 274 286 295 289 283 284 277 267 256 244
220 220 220 218 224 228 235 248 262 284 292 298 298 301 298 299 297 300 297 294 287 292 293 287 287 275 276 282 280 278 276 275 275 277 282 285 289 290 292 283 272 266 256
Height
1538 1538 1538 1541 1544 1546 1548 1550 1552 1553 1555 1556 1558 1559 1559 1560 1561 1562 1562 1563 1563 1563 1564 1564 1565 1565 1565 1565 1565 1565 1565 1565 1565 1565 1565 1565 1566 1566 1567 1568 1569 1570 1570
1538 1539 1540 1542 1545 1547 1549 1551 1553 1554 1556 1557 1559 1560 1561 1561 1562 1563 1563 1564 1564 1564 1565 1565 1565 1566 1566 1566 1566 1566 1566 1567 1567 1567 1567 1567 1568 1568 1569 1570 1571 1572 1572
1539 1540 1541 1544 1547 1549 1551 1553 1554 1556 1557 1559 1560 1561 1562 1563 1563 1564 1564 1565 1565 1565 1566 1566 1566 1567 1567 1567 1567 1568 1568 1568 1568 1569 1569 1571 1570 1570 1571 1572 1573 1574 1575
1541 1543 1544 1546 1548 1550 1553 1554 1556 1557 1559 1560 1561 1562 1563 1563 1564 1565 1565 1566 1566 1566 1567 1567 1567 1568 1568 1568 1568 1569 1569 1570 1570 1571 1573 1574 1573 1572 1573 1574 1575 1576 1577
1543 1545 1545 1547 1550 1552 1554 1556 1557 1559 1560 1561 1562 1563 1563 1564 1565 1565 1566 1566 1567 1567 1568 1568 1568 1569 1569 1569 1569 1570 1570 1571 1572 1573 1575 1575 1574 1574 1574 1575 1576 1578 1579
1544 1547 1547 1549 1551 1553 1555 1557 1558 1560 1561 1562 1563 1564 1564 1565 1565 1566 1566 1567 1567 1568 1568 1568 1569 1569 1569 1570 1570 1571 1571 1572 1573 1576 1576 1576 1576 1575 1575 1577 1578 1579 1580
1547 1549 1548 1550 1553 1555 1556 1558 1559 1561 1562 1562 1563 1564 1564 1565 1566 1566 1566 1567 1567 1568 1568 1569 1569 1569 1570 1570 1571 1571 1572 1573 1574 1577 1577 1577 1576 1575 1576 1578 1579 1580 1582
1549 1551 1550 1551 1554 1556 1557 1559 1560 1561 1562 1563 1563 1564 1564 1565 1565 1566 1566 1567 1567 1568 1568 1568 1569 1569 1570 1570 1571 1572 1572 1573 1575 1577 1577 1578 1576 1576 1577 1578 1580 1581 1582
1550 1552 1553 1554 1555 1556 1558 1559 1560 1561 1562 1562 1563 1564 1564 1565 1565 1565 1566 1566 1566 1567 1567 1567 1568 1568 1569 1569 1570 1571 1572 1573 1575 1576 1577 1577 1576 1577 1577 1578 1580 1581 1583
1550 1553 1554 1556 1557 1558 1558 1559 1560 1561 1561 1562 1563 1563 1563 1564 1564 1564 1565 1565 1565 1565 1565 1566 1566 1567 1567 1568 1568 1569 1570 1571 1573 1576 1576 1576 1576 1576 1577 1578 1580 1581 1583
1550 1552 1555 1557 1557 1558 1560 1559 1560 1560 1561 1561 1562 1562 1562 1563 1564 1563 1563 1563 1563 1563 1564 1564 1564 1565 1565 1566 1566 1567 1568 1570 1572 1574 1575 1574 1574 1576 1577 1578 1579 1581 1582
1550 1552 1554 1556 1557 1558 1559 1559 1560 1561 1560 1561 1561 1560 1560 1561 1561 1562 1561 1561 1561 1561 1561 1561 1562 1562 1562 1563 1564 1564 1565 1567 1570 1571 1572 1571 1572 1574 1575 1577 1578 1580 1581
1551 1552 1553 1555 1556 1558 1558 1559 1559 1559 1559 1560 1559 1558 1558 1559 1559 1559 1559 1559 1558 1558 1559 1559 1559 1559 1560 1561 1561 1561 1562 1564 1565 1567 1568 1567 1569 1571 1573 1575 1576 1578 1580
1551 1552 1553 1554 1555 1556 1557 1557 1558 1558 1558 1559 1557 1557 1557 1557 1556 1557 1556 1556 1556 1556 1555 1555 1555 1556 1555 1556 1557 1557 1558 1559 1561 1562 1563 1563 1565 1567 1569 1571 1573 1575 1577
1551 1552 1553 1553 1554 1555 1556 1557 1558 1558 1558 1557 1556 1555 1554 1554 1554 1554 1553 1552 1553 1552 1552 1552 1552 1552 1551 1552 1552 1553 1553 1554 1555 1557 1558 1558 1559 1562 1564 1567 1569 1571 1574
1551 1552 1553 1553 1554 1555 1556 1557 1557 1557 1556 1556 1555 1554 1553 1552 1552 1551 1551 1549 1549 1549 1549 1548 1548 1548 1548 1548 1548 1548 1548 1549 1549 1550 1552 1553 1553 1556 1558 1561 1564 1566 1569
1551 1552 1553 1554 1554 1555 1556 1557 1557 1557 1556 1555 1554 1552 1551 1551 1549 1549 1548 1548 1547 1547 1545 1545 1545 1545 1544 1544 1543 1543 1543 1543 1544 1544 1546 1547 1549 1550 1551 1554 1557 1560 1563
1551 1552 1553 1555 1555 1556 1556 1556 1557 1557 1555 1554 1553 1551 1550 1548 1547 1546 1546 1546 1545 1544 1544 1543 1543 1542 1541 1540 1539 1539 1539 1538 1538 1539 1540 1541 1543 1545 1546 1547 1550 1553 1557
1551 1552 1553 1554 1555 1556 1556 1556 1556 1555 1554 1553 1552 1550 1548 1547 1545 1544 1544 1543 1542 1542 1542 1541 1541 1539 1538 1537 1536 1535 1534 1533 1533 1534 1534 1535 1536 1537 1539 1540 1542 1545 1549
1551 1552 1553 1554 1555 1555 1556 1555 1555 1554 1553 1552 1550 1548 1546 1545 1543 1542 1542 1540 1540 1539 1539 1538 1537 1536 1535 1533 1533 1531 1529 1529 1528 1528 1528 1529 1530 1530 1532 1534 1536 1537 1540
1551 1552 1553 1554 1554 1554 1555 1555 1555 1554 1552 1551 1549 1546 1544 1542 1541 1539 1539 1538 1537 1537 1535 1535 1534 1533 1532 1531 1530 1528 1526 1524 1524 1523 1523 1524 1524 1524 1525 1526 1528 1530 1533
1550 1551 1552 1552 1553 1553 1553 1553 1552 1551 1550 1549 1547 1544 1542 1540 1538 1538 1536 1535 1535 1533 1532 1531 1530 1530 1530 1529 1528 1525 1523 1522 1520 1520 1519 1519 1519 1519 1519 1520 1521 1522 1525
1549 1550 1551 1551 1551 1551 1551 1551 1550 1548 1547 1547 1545 1543 1540 1538 1536 1534 1533 1532 1531 1530 1530 1528 1527 1527 1527 1526 1525 1525 1522 1519 1518 1518 1516 1516 1514 1514 1514 1514 1514 1515 1517
1548 1549 1549 1549 1549 1548 1548 1548 1548 1547 1546 1544 1542 1540 1537 1535 1534 1532 1530 1529 1527 1527 1526 1525 1525 1524 1523 1523 1523 1522 1522 1520 1519 1515 1515 1513 1512 1510 1510 1509 1509 1509 1510
1546 1546 1547 1546 1546 1546 1545 1545 1544 1543 1542 1541 1539 1537 1535 1534 1531 1529 1527 1526 1524 1524 1523 1521 1520 1520 1520 1520 1520 1519 1518 1517 1516 1515 1512 1511 1509 1508 1506 1504 1504 1503 1504
1543 1543 1544 1543 1543 1543 1542 1542 1540 1539 1538 1537 1535 1534 1533 1532 1529 1528 1525 1523 1521 1521 1519 1518 1517 1517 1516 1515 1515 1515 1515 1514 1513 1511 1509 1507 1506 1504 1502 1501 1499 1498 1498